Albion, NE

12:35 AM CDT on August 21, 2019 (GMT -0500)
Albion Municipal

Weather History for KBVN - June, 2019

Change the Weather History Date:

Sunday, June 9, 2019

  Actual Average (KOFK) Record (KOFK)
Temperature  
Mean Temperature 60 °F 68 °F  
Max Temperature 68 °F 80 °F 102 °F (1933)
Min Temperature 51 °F 57 °F 40 °F (1989)
Degree Days  
Heating Degree Days 5 1  
Month to date heating degree days 18  
Since 1 June heating degree days 18  
Since 1 July heating degree days 6631  
Cooling Degree Days 0 5  
Month to date cooling degree days 35  
Year to date cooling degree days 96  
Since 1 June cooling degree days 35  
Growing Degree Days 10 (Base 50)    
Moisture  
Dew Point 50 °F    
Average Humidity 70    
Maximum Humidity 94    
Minimum Humidity 42    
Precipitation  
Precipitation 0.00 in 0.14 in 2.32 in (1960)
Month to date precipitation 1.32  
Year to date precipitation 11.02  
Snow  
Snow 0.00 in 0.00 in - ()
Month to date snowfall 0.0  
Since 1 June snowfall 0.0  
Since 1 July snowfall 30.5  
Snow Depth -    
Sea Level Pressure  
Sea Level Pressure 30.23 in    
Wind  
Wind Speed 16 mph (NNW)    
Max Wind Speed 24 mph    
Max Gust Speed 32 mph    
Visibility 10 miles    
Events      
T = Trace of Precipitation, MM = Missing Value Source: NWS Daily Summary

Daily Weather History Graph

Daily Weather History Graph

Search for Another Location

Airport or City:

Astronomy

Jun. 09, 2019 Rise Set
Actual Time 5:57 AM CDT 9:05 PM CDT
Civil Twilight 5:23 AM CDT 9:39 PM CDT
Nautical Twilight 4:40 AM CDT 10:23 PM CDT
Astronomical Twilight 3:48 AM CDT 11:15 PM CDT
Moon 12:40 PM CDT (6/9) 1:43 AM CDT (6/9)
Length of Visible Light 16h 16m
Length of Day
15h 08m
Waxing Crescent, 44% of the Moon is Illuminated
Jun 9
Waxing Crescent
Jun 10
First Quarter
Jun 17
Full
Jun 25
Last Quarter
Jul 2
New

Hourly Weather History & Observations

Time (CDT) Temp. Dew Point Humidity Pressure Visibility Wind Dir Wind Speed Gust Speed Precip Events Conditions
12:15 AM 63.7 °F 61.7 °F 93% 30.01 in 10.0 mi North 15.0 mph 20.7 mph N/A   Mostly Cloudy
12:35 AM 62.2 °F 60.6 °F 94% 30.03 in 7.0 mi NNW 15.0 mph 21.9 mph N/A   Overcast
12:55 AM 60.6 °F 57.4 °F 89% 30.03 in 10.0 mi North 16.1 mph 27.6 mph N/A   Overcast
1:15 AM 59.9 °F 57.2 °F 91% 30.03 in 10.0 mi North 12.7 mph 23.0 mph N/A   Overcast
1:35 AM 59.4 °F 56.5 °F 90% 30.05 in 10.0 mi North 16.1 mph 24.2 mph N/A   Overcast
1:55 AM 59.2 °F 56.5 °F 91% 30.05 in 10.0 mi North 15.0 mph 25.3 mph N/A   Overcast
2:15 AM 59.0 °F 56.3 °F 91% 30.04 in 10.0 mi NNW 19.6 mph 24.2 mph N/A   Overcast
2:35 AM 58.8 °F 55.0 °F 87% 30.05 in 10.0 mi North 18.4 mph 23.0 mph N/A   Overcast
2:55 AM 58.5 °F 54.5 °F 87% 30.07 in 10.0 mi NNW 13.8 mph 23.0 mph N/A   Scattered Clouds
3:15 AM 58.3 °F 54.3 °F 87% 30.09 in 10.0 mi NNW 16.1 mph 23.0 mph N/A   Mostly Cloudy
3:35 AM 58.1 °F 53.8 °F 86% 30.09 in 10.0 mi NNW 17.3 mph 21.9 mph N/A   Overcast
3:55 AM 57.7 °F 53.2 °F 85% 30.10 in 10.0 mi NNW 13.8 mph 21.9 mph N/A   Overcast
4:15 AM 57.6 °F 53.6 °F 87% 30.11 in 10.0 mi NNW 20.7 mph 25.3 mph N/A   Overcast
4:35 AM 57.2 °F 53.6 °F 88% 30.11 in 10.0 mi NNW 20.7 mph 25.3 mph N/A   Light Drizzle
4:55 AM 57.2 °F 53.6 °F 88% 30.11 in 10.0 mi NNW 19.6 mph 25.3 mph N/A   Overcast
5:15 AM 56.5 °F 52.9 °F 88% 30.11 in 10.0 mi North 21.9 mph 28.8 mph N/A   Overcast
5:35 AM 56.3 °F 52.2 °F 86% 30.11 in 10.0 mi NNW 24.2 mph 31.1 mph N/A   Overcast
5:55 AM 56.3 °F 51.3 °F 83% 30.13 in 10.0 mi North 18.4 mph 26.5 mph N/A   Overcast
6:15 AM 55.8 °F 51.3 °F 85% 30.15 in 10.0 mi North 19.6 mph 26.5 mph N/A   Overcast
6:35 AM 55.8 °F 50.4 °F 82% 30.17 in 10.0 mi North 18.4 mph 29.9 mph N/A   Overcast
6:55 AM 55.4 °F 50.0 °F 82% 30.18 in 10.0 mi NNW 17.3 mph 31.1 mph N/A   Overcast
7:15 AM 55.4 °F 50.4 °F 83% 30.18 in 10.0 mi North 15.0 mph 25.3 mph N/A   Overcast
7:35 AM 55.6 °F 50.7 °F 84% 30.19 in 10.0 mi North 19.6 mph 26.5 mph N/A   Overcast
7:55 AM 55.8 °F 50.9 °F 84% 30.21 in 10.0 mi North 12.7 mph 20.7 mph N/A   Overcast
8:15 AM 55.9 °F 49.8 °F 80% 30.22 in 10.0 mi North 15.0 mph 20.7 mph N/A   Overcast
8:35 AM 55.9 °F 47.5 °F 73% 30.24 in 10.0 mi NNW 16.1 mph 21.9 mph N/A   Overcast
8:55 AM 56.3 °F 47.7 °F 73% 30.26 in 10.0 mi NNW 17.3 mph 23.0 mph N/A   Overcast
9:15 AM 56.7 °F 48.0 °F 73% 30.24 in 10.0 mi North 16.1 mph 21.9 mph N/A   Overcast
9:35 AM 57.2 °F 48.7 °F 73% 30.25 in 10.0 mi NNW 18.4 mph 25.3 mph N/A   Overcast
9:55 AM 57.4 °F 48.7 °F 73% 30.25 in 10.0 mi NNW 12.7 mph 23.0 mph N/A   Overcast
10:15 AM 57.2 °F 49.1 °F 74% 30.25 in 10.0 mi NNW 19.6 mph 24.2 mph N/A   Overcast
10:35 AM 57.2 °F 47.8 °F 71% 30.26 in 10.0 mi North 16.1 mph 27.6 mph N/A   Overcast
10:55 AM 57.2 °F 49.6 °F 76% 30.25 in 10.0 mi NNW 19.6 mph 26.5 mph N/A   Overcast
11:15 AM 58.1 °F 50.0 °F 74% 30.26 in 10.0 mi NNW 19.6 mph 26.5 mph N/A   Overcast
11:35 AM 58.1 °F 48.6 °F 71% 30.26 in 10.0 mi NNW 20.7 mph 26.5 mph N/A   Overcast
11:55 AM 59.4 °F 48.6 °F 67% 30.26 in 10.0 mi North 18.4 mph 26.5 mph N/A   Overcast
12:15 PM 61.0 °F 50.4 °F 68% 30.27 in 10.0 mi NNW 18.4 mph 26.5 mph N/A   Overcast
12:35 PM 60.4 °F 49.3 °F 67% 30.28 in 10.0 mi NNW 19.6 mph 25.3 mph N/A   Overcast
12:55 PM 61.3 °F 49.1 °F 64% 30.28 in 10.0 mi NNW 19.6 mph 26.5 mph N/A   Overcast
1:15 PM 62.1 °F 48.9 °F 62% 30.27 in 10.0 mi NNW 23.0 mph 28.8 mph N/A   Overcast
1:35 PM 62.6 °F 48.6 °F 60% 30.28 in 10.0 mi North 17.3 mph 32.2 mph N/A   Overcast
1:55 PM 63.7 °F 48.4 °F 57% 30.28 in 10.0 mi NNW 21.9 mph 27.6 mph N/A   Overcast
2:15 PM 63.7 °F 47.8 °F 56% 30.28 in 10.0 mi North 19.6 mph 26.5 mph N/A   Mostly Cloudy
2:35 PM 64.2 °F 47.7 °F 55% 30.28 in 10.0 mi North 18.4 mph 24.2 mph N/A   Mostly Cloudy
2:55 PM 65.8 °F 48.4 °F 53% 30.29 in 10.0 mi NNW 17.3 mph 25.3 mph N/A   Scattered Clouds
3:15 PM 66.2 °F 45.9 °F 48% 30.29 in 10.0 mi NNW 19.6 mph 31.1 mph N/A   Mostly Cloudy
3:35 PM 66.6 °F 47.1 °F 50% 30.30 in 10.0 mi NNW 19.6 mph 26.5 mph N/A   Overcast
3:55 PM 66.9 °F 49.3 °F 53% 30.30 in 10.0 mi NW 18.4 mph - N/A   Mostly Cloudy
4:15 PM 66.9 °F 48.9 °F 52% 30.29 in 10.0 mi NNW 21.9 mph 29.9 mph N/A   Scattered Clouds
4:35 PM 66.9 °F 48.0 °F 51% 30.30 in 10.0 mi NNW 17.3 mph 27.6 mph N/A   Scattered Clouds
4:55 PM 68.2 °F 47.8 °F 48% 30.30 in 10.0 mi NNW 19.6 mph 24.2 mph N/A   Scattered Clouds
5:15 PM 68.0 °F 45.3 °F 44% 30.30 in 10.0 mi NW 20.7 mph 26.5 mph N/A   Scattered Clouds
5:35 PM 68.0 °F 45.5 °F 44% 30.30 in 10.0 mi NW 20.7 mph 25.3 mph N/A   Scattered Clouds
5:55 PM 68.0 °F 43.9 °F 42% 30.30 in 10.0 mi NNW 17.3 mph 25.3 mph N/A   Scattered Clouds
6:15 PM 68.2 °F 44.8 °F 43% 30.30 in 10.0 mi NNW 15.0 mph 24.2 mph N/A   Scattered Clouds
6:35 PM 67.1 °F 44.2 °F 44% 30.30 in 10.0 mi North 11.5 mph 19.6 mph N/A   Scattered Clouds
6:55 PM 67.5 °F 43.9 °F 43% 30.30 in 10.0 mi NW 13.8 mph 23.0 mph N/A   Scattered Clouds
7:15 PM 68.0 °F 44.1 °F 42% 30.30 in 10.0 mi North 13.8 mph 18.4 mph N/A   Mostly Cloudy
7:35 PM 66.9 °F 43.9 °F 43% 30.31 in 10.0 mi NNW 13.8 mph - N/A   Scattered Clouds
7:55 PM 66.0 °F 44.4 °F 46% 30.31 in 10.0 mi NNW 9.2 mph 16.1 mph N/A   Clear
8:15 PM 65.3 °F 45.0 °F 48% 30.31 in 10.0 mi North 9.2 mph - N/A   Clear
8:35 PM 64.2 °F 44.8 °F 49% 30.32 in 10.0 mi NNW 4.6 mph - N/A   Clear
8:55 PM 62.2 °F 45.3 °F 54% 30.32 in 10.0 mi North 3.5 mph - N/A   Clear
9:15 PM 59.0 °F 48.2 °F 67% 30.32 in 10.0 mi NNW 3.5 mph - N/A   Clear
9:35 PM 57.6 °F 47.7 °F 70% 30.32 in 10.0 mi Calm Calm - N/A   Clear
9:55 PM 54.7 °F 49.8 °F 84% 30.33 in 10.0 mi Calm Calm - N/A   Clear
10:15 PM 53.8 °F 48.9 °F 84% 30.34 in 10.0 mi Calm Calm - N/A   Clear
10:35 PM 55.0 °F 47.3 °F 75% 30.34 in 10.0 mi NNW 3.5 mph - N/A   Clear
10:55 PM 54.5 °F 47.1 °F 76% 30.34 in 10.0 mi NW 3.5 mph - N/A   Clear
11:15 PM 52.0 °F 48.2 °F 87% 30.35 in 10.0 mi NW 3.5 mph - N/A   Clear
11:35 PM 52.0 °F 47.3 °F 84% 30.35 in 10.0 mi NW 3.5 mph - N/A   Clear
11:55 PM 51.3 °F 47.3 °F 86% 30.35 in 10.0 mi NW 3.5 mph - N/A   Clear